Provo, UT

4:20 AM MST on November 19, 2017 (GMT -0700)
Provo Municipal

Weather History for KPVU - April, 2013

Change the Weather History Date:

Sunday, April 14, 2013

  Actual Average Record
Temperature  
Mean Temperature 42 °F -  
Max Temperature 48 °F 57 °F 78 °F (2002)
Min Temperature 35 °F 34 °F 30 °F (1986)
Degree Days  
Heating Degree Days 24    
Moisture  
Dew Point 17 °F    
Average Humidity 36    
Maximum Humidity 61    
Minimum Humidity 24    
Precipitation  
Precipitation 0.00 in - - ()
Sea Level Pressure  
Sea Level Pressure 29.76 in    
Wind  
Wind Speed 9 mph (NNW)    
Max Wind Speed 24 mph    
Max Gust Speed 28 mph    
Visibility 13 miles    
Events      
Averages and records for this station are not official NWS values.
T = Trace of Precipitation, MM = Missing Value Source: NWS Daily Summary

Daily Weather History Graph

Daily Weather History Graph

Search for Another Location

Airport or City:

Trip Planner

Search our weather history database for the weather conditions in past years. The results will help you decide how hot, cold, wet, or windy it might be!

Date:

Astronomy

Apr. 14, 2013 Rise Set
Actual Time 6:49 AM MDT 8:04 PM MDT
Civil Twilight 6:21 AM MDT 8:33 PM MDT
Nautical Twilight 5:48 AM MDT 9:06 PM MDT
Astronomical Twilight 5:12 AM MDT 9:42 PM MDT
Moon 9:29 AM MDT (4/14) No Moon Set
Length of Visible Light 14h 11m
Length of Day
13h 15m
Waxing Crescent, 17% of the Moon is Illuminated
Apr 14
Waxing Crescent
Apr 18
First Quarter
Apr 25
Full
May 2
Last Quarter
May 9
New

Hourly Weather History & Observations

Time (MDT) Temp. Windchill Dew Point Humidity Pressure Visibility Wind Dir Wind Speed Gust Speed Precip Events Conditions
6:50 AM 35.6 °F 30.7 °F 15.8 °F 44% 29.89 in 15.0 mi Variable 5.8 mph - N/A   Mostly Cloudy
7:50 AM 35.6 °F 30.7 °F 17.6 °F 48% 29.90 in 15.0 mi Variable 5.8 mph - N/A   Mostly Cloudy
9:02 AM 37.4 °F 32.8 °F 17.6 °F 45% 29.91 in 15.0 mi Variable 5.8 mph - N/A   Mostly Cloudy
9:50 AM 39.2 °F 35.0 °F 17.6 °F 42% 29.91 in 15.0 mi Variable 5.8 mph - N/A   Mostly Cloudy
10:57 AM 41.0 °F 39.0 °F 12.2 °F 31% 29.91 in 15.0 mi NNE 3.5 mph - N/A   Partly Cloudy
11:51 AM 42.8 °F 38.6 °F 12.2 °F 29% 29.91 in 15.0 mi WNW 6.9 mph - N/A   Partly Cloudy
12:49 PM 44.6 °F 40.2 °F 14.0 °F 29% 29.88 in 15.0 mi WNW 8.1 mph - N/A   Scattered Clouds
2:47 PM 46.4 °F 44.3 °F 12.2 °F 25% 29.83 in 15.0 mi NW 4.6 mph - N/A   Scattered Clouds
3:51 PM 48.2 °F - 17.6 °F 30% 29.80 in 15.0 mi West 4.6 mph - N/A   Scattered Clouds
4:52 PM 48.2 °F - 12.2 °F 24% 29.76 in 15.0 mi Variable 4.6 mph - N/A   Mostly Cloudy
5:47 PM 48.2 °F - 15.8 °F 27% 29.73 in 15.0 mi Variable 4.6 mph - N/A   Scattered Clouds
6:50 PM 48.2 °F - 19.4 °F 32% 29.69 in 15.0 mi Variable 4.6 mph - N/A   Scattered Clouds
7:55 PM 44.6 °F 37.2 °F 19.4 °F 37% 29.67 in 15.0 mi WNW 17.3 mph - N/A   Scattered Clouds
8:52 PM 42.8 °F 34.8 °F 17.6 °F 36% 29.67 in 15.0 mi WNW 17.3 mph 27.6 mph N/A   Overcast
8:55 PM 42.8 °F 33.3 °F 17.6 °F 36% 29.67 in 10.0 mi NW 24.2 mph 27.6 mph N/A   Overcast
9:15 PM 42.8 °F 34.0 °F 17.6 °F 36% 29.68 in 10.0 mi NW 20.7 mph 25.3 mph N/A   Overcast
9:35 PM 42.8 °F 34.3 °F 17.6 °F 36% 29.68 in 10.0 mi NW 19.6 mph - N/A   Overcast
9:55 PM 42.8 °F 35.1 °F 15.8 °F 34% 29.70 in 10.0 mi NW 16.1 mph - N/A   Overcast
10:15 PM 42.8 °F 34.8 °F 17.6 °F 36% 29.70 in 10.0 mi NW 17.3 mph 20.7 mph N/A   Mostly Cloudy
10:35 PM 42.8 °F 35.1 °F 17.6 °F 36% 29.70 in 10.0 mi NNW 16.1 mph - N/A   Mostly Cloudy
10:55 PM 42.8 °F 36.6 °F 17.6 °F 36% 29.69 in 10.0 mi NNW 11.5 mph - N/A   Overcast
11:15 PM 42.8 °F 37.0 °F 17.6 °F 36% 29.67 in 10.0 mi North 10.4 mph - N/A   Mostly Cloudy
11:35 PM 42.8 °F 37.0 °F 19.4 °F 39% 29.66 in 10.0 mi NNE 10.4 mph - N/A   Partly Cloudy
11:55 PM 39.2 °F 33.6 °F 26.6 °F 61% 29.66 in 10.0 mi North 8.1 mph - N/A   Mostly Cloudy